Regional Weather Roundup
Issued by NWS

Home | Current Version | Previous Version | Graphics & Text | Print | Product List | Glossary Off
Versions: 1 2 3 4 5 6 7 8 9 10 11 12 13 14 15 16 17 18 19 20 21 22 23 24 25 26 27 28 29 30 31 32 33 34 35 36 37 38 39 40 41 42 43 44 45 46 47 48 49 50

648
ASUS43 KDMX 260701
RWRIA

WEATHER ROUNDUP FOR IOWA
NATIONAL WEATHER SERVICE DES MOINES IA
100 AM CST SUN FEB 26 2017

NOTE: "FAIR" INDICATES FEW OR NO CLOUDS BELOW 12,000 FEET WITH NO
SIGNIFICANT WEATHER AND/OR OBSTRUCTIONS TO VISIBILITY.

* - THESE STATIONS ARE NOT NWS STATIONS...THUS NOT UNDER NWS
QUALITY CONTROL.  THEY ALSO DO NOT REPORT WEATHER SUCH
AS PRECIPITATION OR FOG.

IAZ001>003-012>014-020>022-031>034-043>046-260800-
   NORTHWEST IOWA

CITY           SKY/WX    TMP DP  RH WIND       PRES   REMARKS
CARROLL *      CLOUDY    27  21  80 S14       29.83F WCI  15
CHEROKEE *     MOCLDY    22  18  84 S3        29.82F
DENISON *      PTCLDY    27  19  74 S7        29.82F WCI  19
LE MARS *      MOCLDY    23  18  80 S6        29.82S WCI  16
SHELDON *      CLOUDY    23  23 100 S8        29.77F WCI  14
SIOUX CITY     CLOUDY    20  15  81 E6        29.84R WCI  12
SPENCER        CLOUDY    20  14  77 SW8       29.80F WCI  10
STORM LAKE *   CLOUDY    23  18  80 SW9       29.81F WCI  13
$$

IAZ055>058-069>071-079>083-090>094-260800-
   SOUTHWEST IOWA

CITY           SKY/WX    TMP DP  RH WIND       PRES   REMARKS
ATLANTIC *     CLOUDY    32  23  69 S13       29.87S WCI  22
AUDUBON *      CLEAR     28  21  74 S9        29.86S WCI  20
CLARINDA *     CLOUDY    32  21  64 S10       29.94S WCI  24
COUNCIL BLFS * MOCLDY    32  23  69 SW14      29.87S WCI  22
CRESTON *      CLOUDY    30  18  59 S15       29.90F WCI  19
HARLAN  *      MOCLDY    28  23  80 S12       29.88F WCI  18
LAMONI         CLOUDY    29  16  58 S12       29.93F WCI  19
RED OAK *      CLOUDY    32  23  69 S7        29.90S WCI  26
SHENANDOAH *   CLOUDY    34  23  64 S12       29.91F WCI  25
$$

IAZ047>049-059>061-072>074-084-260800-
   CENTRAL IOWA

CITY           SKY/WX    TMP DP  RH WIND       PRES   REMARKS
AMES           CLOUDY    30  20  66 S12       29.88F WCI  20
ANKENY *       PTCLDY    30  19  64 S10       29.91F WCI  21
BOONE *        CLOUDY    28  19  69 S12       29.86F WCI  18
CHARITON *     PTCLDY    28  18  64 S13       29.93F WCI  18
DES MOINES     MOCLDY    31  17  56 S13       29.90F WCI  21
GRINNELL*      CLOUDY    29  21  71 S12       29.94F WCI  19
KNOXVILLE *    MOCLDY    32  16  51 S14       29.92F WCI  22
MARSHALLTOWN   CLOUDY    29  20  69 S13       29.89F WCI  19
NEWTON *       CLOUDY    28  21  74 S13       29.91F WCI  18
PELLA *        PTCLDY    30  19  63 S9        29.95F WCI  22
PERRY *          N/A     26  20  80 S13       29.87F WCI  14
$$

IAZ004>006-015-016-023>025-035-036-260800-
   NORTH CENTRAL IOWA

CITY           SKY/WX    TMP DP  RH WIND       PRES   REMARKS
ALGONA *       PTCLDY    19  16  86 S13       29.82S WCI   7
CLARION *      PTCLDY    23  21  93 S14       29.84F WCI  11
ESTHERVILLE    CLOUDY    18  14  84 S12       29.79F WCI   5
FORT DODGE *   CLOUDY    27  18  69 S14       29.85S WCI  15
MASON CITY     CLOUDY    23  18  81 S12       29.85F WCI  12
FOREST CITY *    N/A     23  19  86 S10       29.83F WCI  12
WEBSTER CITY * CLOUDY    27  19  74 S14       29.83F WCI  15
IOWA FALLS *   CLOUDY    28  22  78 S13       29.88F WCI  17
$$

IAZ007>011-017>019-026>030-037>042-050>054-066-260800-
   NORTHEAST IOWA

CITY           SKY/WX    TMP DP  RH WIND       PRES   REMARKS
CEDAR RAPIDS   CLOUDY    26  19  74 S9        29.96F WCI  17
CHARLES CITY * CLOUDY    27  19  74 S15       29.87F WCI  15
CLINTON *      CLOUDY    25  21  85 S7        30.03F WCI  17
DECORAH *      CLOUDY    25  18  74 S9G17     29.87F WCI  15
DUBUQUE        CLOUDY    23  18  81 S9        29.96F WCI  13
MONTICELLO *   CLOUDY    27  19  74 S10       29.97F WCI  17
OELWEIN *      CLOUDY    27  21  80 S14       29.92F WCI  15
WATERLOO       CLOUDY    28  18  66 S17       29.91F WCI  16
$$

IAZ064-065-067-068-078-260800-
   EAST CENTRAL IOWA

CITY           SKY/WX    TMP DP  RH WIND       PRES   REMARKS
DAVENPORT      MOCLDY    25  18  74 S9        30.03F WCI  15
IOWA CITY      CLOUDY    27  20  75 SE5       30.01F WCI  22
MUSCATINE *    CLOUDY    27  19  74 CALM      30.03F
QUAD CITIES    PTCLDY    27  18  69 S7        30.03F WCI  19
$$

IAZ062-063-075>077-085>089-095>099-260800-
   SOUTHEAST IOWA

CITY           SKY/WX    TMP DP  RH WIND       PRES   REMARKS
BURLINGTON     MOCLDY    26  18  71 S7        30.03F WCI  18
FAIRFIELD *    CLOUDY    30  16  55 S9        29.99F WCI  22
KEOKUK *       CLOUDY    30  16  55 S7        30.03F WCI  23
CENTERVILLE *    N/A     27  16  63 S3        29.98F
OTTUMWA        CLOUDY    30  18  60 S12       29.96F WCI  20
WASHINGTON *   MOCLDY    27  19  74 S9        30.01F WCI  17
$$

ABBREVIATIONS USED IN REMARKS
   TC - TEMPERATURES IN CELSIUS
  WCI - WIND CHILL INDEX
   HX - HEAT INDEX
  VSB - VISIBILITY
$$





USA.gov is the U.S. government's official web portal to all federal, state and local government web resources and services.